Tiempo atmosférico en la estación meteorológica de Rivilla De Barajas, Ávila (925 m.)



Fecha
DESCASC
Temp. máxima en grados centígrados (hora)
DESCASC
Temp. mínima en grados centígrados (hora)
DESCASC
Temp. media en grados centígrados
DESCASC
Racha de viento máxima en m/sg (hora)
DESCASC
Velocidad máxima media en intervalos de 10 minutos(hora)
DESCASC
Precipitaciones diarias en mm
DESCASC
Precipitaciones de 00:00 a 06:00 en mm
DESCASC
Precipitaciones de 06:00 a 12:00 en mm
DESCASC
Precipitaciones de 12:00 a 18:00 en mm
DESCASC
Precipitaciones de 18:00 a 24:00 en mm
DESCASC
14-12-2019 10.4 (13:20) 7 (07:50) 8.7 13.89 (00:20) 8.89 (00:10) 0 0 0 0 0
13-12-2019 10.7 (13:10) 8.2 (08:40) 9.4 16.94 (08:00) 11.11 (06:50) 0 0 0 0 0
12-12-2019 9.5 (23:30) 2.9 (00:40) 6.2 16.39 (23:00) 10.56 (18:30) 0.2 0 0 0.2 0
11-12-2019 7.5 (07:00) 2.5 (00:00) 5 12.5 (10:50) 9.17 (10:50) 0.8 0 0.8 0 0
10-12-2019 8.3 (14:50) 0.5 (00:00) 4.4 6.67 (23:20) 4.44 (23:10) 0.2 0.2 0 0 0
09-12-2019 12.8 (14:10) 3.1 (00:00) 8 7.22 (11:40) 4.44 (10:50) 0.2 0.2 0 0 0
08-12-2019 11 (12:50) 3.3 (00:00) 7.1 7.78 (13:50) 5.83 (13:20) 0.4 0 0 0.4 0
07-12-2019 11.1 (16:00) 1.3 (00:00) 6.2 4.17 (12:10) 3.06 (12:10) 0.2 0.2 0 0 0
06-12-2019 9.1 (14:30) -0.9 (-00:0) 4.1 4.17 (11:30) 3.33 (11:30) 0 0 0 0 0
05-12-2019 8.4 (16:10) 1.9 (00:00) 5.1 7.22 (13:50) 5 (14:00) 0 0 0 0 0
04-12-2019 3.9 (19:30) -1.3 (-00:0) 1.3 3.89 (13:10) 2.78 (13:00) 0 0 0 0 0
03-12-2019 4.8 (16:20) -2.5 (-00:0) 1.2 6.67 (11:00) 4.72 (11:00) 0 0 0 0 0
02-12-2019 7.6 (15:00) 0.5 (00:00) 4 12.5 (14:40) 8.61 (13:40) 0.8 0.8 0 0 0
01-12-2019 8.1 (15:00) 3.9 (00:00) 6 9.44 (04:30) 6.11 (23:30) 8.6 0 4.6 0 4
30-11-2019 13.2 (13:50) 4.1 (00:00) 8.6 16.67 (15:50) 9.72 (16:40) 8.2 0 0 5.8 2.4
29-11-2019 12.5 (13:10) 10.4 (00:00) 11.4 12.78 (00:20) 8.61 (00:50) 1.2 0 0.8 0.4 0
28-11-2019 11.6 (15:00) 7.3 (00:00) 9.5 15.83 (06:20) 9.44 (13:20) 0 0 0 0 0
27-11-2019 10.5 (15:10) 5.8 (00:00) 8.2 15.83 (03:00) 12.22 (03:00) 0.4 0.4 0 0 0
26-11-2019 15.5 (16:10) 7.4 (00:00) 11.5 21.67 (19:50) 13.33 (19:50) 5.6 0 0 0 5.6
25-11-2019 12.9 (14:40) 8.6 (00:00) 10.8 15.28 (02:30) 9.44 (02:10) 0.6 0.6 0 0 0
24-11-2019 9.9 (23:40) 3 (00:00) 6.4 15 (23:40) 8.89 (23:40) 0 0 0 0 0
23-11-2019 8.2 (14:40) 3.2 (00:00) 5.7 19.17 (05:30) 13.33 (05:50) 0.2 0.2 0 0 0
22-11-2019 13.4 (14:20) 5.4 (00:00) 9.4 17.78 (14:30) 11.11 (17:00) 4.8 0.2 1.8 1.8 1
21-11-2019 8.4 (15:10) 3.1 (00:00) 5.7 9.44 (16:10) 6.67 (16:10) 2.2 0 1.6 0.6 0
20-11-2019 6.6 (15:20) 2.9 (00:00) 4.8 10.56 (17:40) 6.67 (17:40) 3.4 0 1 2.2 0.2
19-11-2019 7.9 (12:30) 1.4 (00:00) 4.7 5.56 (14:00) 3.89 (15:50) 0 0 0 0 0
18-11-2019 6 (16:10) -0.1 (00:00) 2.9 8.89 (00:50) 5.83 (00:50) 0 0 0 0 0
17-11-2019 8.7 (15:30) 1.6 (00:00) 5.1 13.89 (15:10) 8.61 (14:00) 4.4 0 0.6 3 0.8
16-11-2019 6.3 (15:40) -1.1 (-00:0) 2.6 9.17 (16:40) 7.5 (16:40) 0 0 0 0 0
15-11-2019 5.6 (15:40) 0 (00:00) 2.8 12.22 (01:40) 8.89 (02:00) 0.8 0.8 0 0 0

Gráficas

Temp. máximas Temp. mínimas Temp. medias Precipitaciones Rachas de viento máximas Velocidades máximas media en intervalos de 10 minutos

Datos horarios

Fecha y hora oficial Temperatura (ºC) Velocidad del viento (km/h) Dirección del viento Racha (km/h) Dirección de racha Precipitación (mm) Presión (hPa) Tendencia (hPa) Humedad (%)
2019-12-14 23:00:00 7.8 17 Oeste 33 Sudoeste 0 -- -- 90
2019-12-14 22:00:00 7.6 16 Sudoeste 29 Oeste 0 -- -- 86
2019-12-14 21:00:00 7.9 14 Oeste 29 Oeste 0 -- -- 81
2019-12-14 20:00:00 7.9 12 Sudoeste 28 Oeste 0 -- -- 80
2019-12-14 19:00:00 8.3 14 Sudoeste 27 Sudoeste 0 -- -- 82
2019-12-14 18:00:00 8.7 17 Oeste 28 Oeste 0 -- -- 82
2019-12-14 17:00:00 9.2 16 Oeste 25 Oeste 0 -- -- 82
2019-12-14 16:00:00 9.6 18 Oeste 28 Sudoeste 0 -- -- 79
2019-12-14 15:00:00 9.8 18 Oeste 31 Oeste 0 -- -- 79
2019-12-14 14:00:00 9.8 15 Oeste 36 Oeste 0 -- -- 77
2019-12-14 13:00:00 9.6 22 Oeste 38 Oeste 0 -- -- 79
2019-12-14 12:00:00 8.7 18 Oeste 32 Oeste 0 -- -- 83
2019-12-14 11:00:00 8.2 14 Sudoeste 24 Oeste 0 -- -- 83
2019-12-14 10:00:00 7.5 11 Sudoeste 27 Sudoeste 0 -- -- 85
2019-12-14 09:00:00 7.2 14 Oeste 32 Oeste 0 -- -- 85
2019-12-14 08:00:00 7 19 Oeste 32 Oeste 0 -- -- 86
2019-12-14 07:00:00 7.2 17 Oeste 31 Oeste 0 -- -- 83
2019-12-14 06:00:00 7.2 18 Oeste 28 Oeste 0 -- -- 85
2019-12-14 05:00:00 7.4 19 Oeste 34 Oeste 0 -- -- 86
2019-12-14 04:00:00 7.6 19 Oeste 37 Sudoeste 0 -- -- 85
2019-12-14 03:00:00 7.5 21 Oeste 39 Oeste 0 -- -- 87
2019-12-14 02:00:00 7.8 29 Oeste 40 Oeste 0 -- -- 89
2019-12-14 01:00:00 8 24 Oeste 50 Oeste 0 -- -- 88
2019-12-14 00:00:00 8.4 33 Oeste 50 Oeste 0 -- -- 89
2019-12-13 23:00:00 8.5 31 Oeste 54 Oeste 0 -- -- 90
2019-12-13 22:00:00 8.7 37 Oeste 51 Oeste 0 -- -- 89
2019-12-13 21:00:00 9.1 27 Oeste 43 Sudoeste 0 -- -- 88
2019-12-13 20:00:00 9.1 30 Oeste 42 Sudoeste 0 -- -- 90
2019-12-13 19:00:00 9.6 24 Oeste 39 Oeste 0 -- -- 88
2019-12-13 18:00:00 9.9 23 Oeste 42 Oeste 0 -- -- 89
2019-12-13 17:00:00 10.3 29 Oeste 46 Oeste 0 -- -- 89
2019-12-13 16:00:00 10.2 33 Oeste 48 Oeste 0 -- -- 92
2019-12-13 15:00:00 10.1 34 Oeste 55 Oeste 0 -- -- 93
2019-12-13 14:00:00 10.5 34 Oeste 53 Oeste 0 -- -- 89
2019-12-13 13:00:00 10.6 36 Oeste 53 Oeste 0 -- -- 89
2019-12-13 12:00:00 10.3 33 Oeste 51 Oeste 0 -- -- 87
2019-12-13 11:00:00 9.3 28 Oeste 46 Oeste 0 -- -- 88
2019-12-13 10:00:00 8.8 26 Sudoeste 53 Oeste 0 -- -- 90
2019-12-13 09:00:00 8.4 35 Oeste 52 Oeste 0 -- -- 92
2019-12-13 08:00:00 8.6 38 Oeste 61 Oeste 0 -- -- 89
2019-12-13 07:00:00 8.6 40 Oeste 59 Oeste 0 -- -- 89
2019-12-13 06:00:00 8.8 35 Oeste 57 Oeste 0 -- -- 92
2019-12-13 05:00:00 9.2 36 Oeste 57 Oeste 0 -- -- 93
2019-12-13 04:00:00 9.4 36 Oeste 54 Oeste 0 -- -- 96
2019-12-13 03:00:00 9.3 36 Oeste 58 Oeste 0 -- -- 99
2019-12-13 02:00:00 9.3 37 Oeste 59 Oeste 0 -- -- 98
2019-12-13 01:00:00 9.6 36 Oeste 55 Oeste 0 -- -- 96
2019-12-13 00:00:00 9.5 32 Oeste 58 Oeste 0 -- -- 96
2019-12-12 23:00:00 9.4 37 Oeste 59 Oeste 0 -- -- 95
2019-12-12 22:00:00 8.9 31 Oeste 55 Oeste 0 -- -- 98
2019-12-12 21:00:00 8.4 37 Oeste 57 Oeste 0 -- -- 98
2019-12-12 20:00:00 7.6 36 Oeste 58 Oeste 0 -- -- 97
2019-12-12 19:00:00 7.2 36 Oeste 58 Oeste 0 -- -- 97
2019-12-12 18:00:00 6.5 35 Oeste 56 Sudoeste 0 -- -- 98
2019-12-12 17:00:00 5.9 33 Oeste 55 Oeste 0.2 -- -- 98
2019-12-12 16:00:00 5.6 36 Oeste 57 Oeste 0 -- -- 96
2019-12-12 15:00:00 5.4 34 Oeste 54 Sudoeste 0 -- -- 96
2019-12-12 14:00:00 5.6 35 Oeste 53 Oeste 0 -- -- 93
2019-12-12 13:00:00 5.7 32 Oeste 53 Oeste 0 -- -- 92
2019-12-12 12:00:00 5.7 30 Oeste 52 Oeste 0 -- -- 88
2019-12-12 11:00:00 5.5 27 Oeste 46 Oeste 0 -- -- 88
2019-12-12 10:00:00 5.2 26 Oeste 42 Sudoeste 0 -- -- 87
2019-12-12 09:00:00 4.5 25 Oeste 39 Oeste 0 -- -- 92
2019-12-12 08:00:00 4.4 26 Oeste 43 Oeste 0 -- -- 92
2019-12-12 07:00:00 4.1 24 Oeste 42 Sudoeste 0 -- -- 92
2019-12-12 06:00:00 3.8 23 Oeste 36 Sudoeste 0 -- -- 91
2019-12-12 05:00:00 3.5 20 Oeste 38 Oeste 0 -- -- 92
2019-12-12 04:00:00 3.7 26 Oeste 38 Oeste 0 -- -- 91
2019-12-12 03:00:00 3.7 23 Oeste 39 Oeste 0 -- -- 92
2019-12-12 02:00:00 3.4 25 Oeste 43 Oeste 0 -- -- 92
2019-12-12 01:00:00 3 24 Oeste 36 Oeste 0 -- -- 91
2019-12-12 00:00:00 3 22 Oeste 36 Oeste 0 -- -- 89
2019-12-11 23:00:00 2.8 24 Oeste 34 Sudoeste 0 -- -- 85
2019-12-11 22:00:00 2.6 17 Sudoeste 27 Sudoeste 0 -- -- 84
2019-12-11 21:00:00 2.5 17 Oeste 30 Oeste 0 -- -- 85
2019-12-11 20:00:00 2.8 21 Oeste 31 Oeste 0 -- -- 85
2019-12-11 19:00:00 3.1 19 Oeste 35 Oeste 0 -- -- 85
2019-12-11 18:00:00 4.4 25 Noroeste 35 Noroeste 0 -- -- 79
2019-12-11 17:00:00 6 26 Oeste 35 Oeste 0 -- -- 76
2019-12-11 16:00:00 6.8 24 Oeste 33 Oeste 0 -- -- 76
2019-12-11 15:00:00 7.1 22 Oeste 32 Oeste 0 -- -- 79
2019-12-11 14:00:00 6.3 22 Noroeste 33 Noroeste 0 -- -- 82
2019-12-11 13:00:00 5.9 27 Oeste 37 Oeste 0 -- -- 89
2019-12-11 12:00:00 5.5 30 Oeste 41 Oeste 0 -- -- 89
2019-12-11 11:00:00 5.9 32 Oeste 45 Oeste 0 -- -- 95
2019-12-11 10:00:00 4.4 21 Oeste 36 Oeste 0.6 -- -- 98
2019-12-11 09:00:00 4.6 26 Oeste 36 Oeste 0.2 -- -- 91
2019-12-11 08:00:00 7.4 17 Oeste 25 Sudoeste 0 -- -- 71
2019-12-11 07:00:00 7.5 13 Sudoeste 22 Sudoeste 0 -- -- 55
2019-12-11 06:00:00 6.8 12 Sudoeste 18 Oeste 0 -- -- 47
2019-12-11 05:00:00 6.3 10 Sudoeste 18 Oeste 0 -- -- 48
2019-12-11 04:00:00 5.5 13 Oeste 21 Sudoeste 0 -- -- 51
2019-12-11 03:00:00 6.7 14 Sudoeste 26 Sudoeste 0 -- -- 51
2019-12-11 02:00:00 6 16 Sudoeste 24 Sudoeste 0 -- -- 57
2019-12-11 01:00:00 5.9 14 Sudoeste 22 Sudoeste 0 -- -- 59
2019-12-11 00:00:00 6.8 14 Sudoeste 24 Oeste 0 -- -- 54
2019-12-10 23:00:00 6.6 15 Sudoeste 22 Oeste 0 -- -- 57
2019-12-10 22:00:00 6.2 15 Sudoeste 21 Sudoeste 0 -- -- 66
2019-12-10 21:00:00 6.4 13 Oeste 17 Oeste 0 -- -- 72
2019-12-10 20:00:00 6.1 6 Sudoeste 11 Sudoeste 0 -- -- 81
2019-12-10 19:00:00 7.3 7 Sudoeste 11 Sudoeste 0 -- -- 81
2019-12-10 18:00:00 7.1 5 Sur 6 Sur 0 -- -- 84
2019-12-10 17:00:00 7.7 0 Calma 2 Sur 0 -- -- 79
2019-12-10 16:00:00 8 0 Calma 4 Norte 0 -- -- 74
2019-12-10 15:00:00 8.2 2 Norte 7 Norte 0 -- -- 72
2019-12-10 14:00:00 7.5 2 Nordeste 10 Nordeste 0 -- -- 76
2019-12-10 13:00:00 6.5 7 Nordeste 10 Nordeste 0 -- -- 84
2019-12-10 12:00:00 5.7 2 Norte 6 Sur 0 -- -- 88
2019-12-10 11:00:00 4.4 3 Este 10 Oeste 0 -- -- 87
2019-12-10 10:00:00 3.2 2 Sur 6 Sur 0 -- -- 86
2019-12-10 09:00:00 0.6 3 Sur 10 Sudeste 0 -- -- 86
2019-12-10 08:00:00 1.1 3 Sudeste 8 Sur 0 -- -- 91
2019-12-10 07:00:00 1.6 4 Sur 10 Sudeste 0 -- -- 95
2019-12-10 06:00:00 1.3 4 Sur 5 Sudoeste 0 -- -- 99
2019-12-10 05:00:00 1.5 0 Calma 7 Sur 0.2 -- -- 99
2019-12-10 04:00:00 2.3 5 Sur 11 Sudeste 0 -- -- 99
2019-12-10 03:00:00 1.9 2 Sudeste 7 Oeste 0 -- -- 98
2019-12-10 02:00:00 2.5 5 Oeste 6 Oeste 0 -- -- 97
2019-12-10 01:00:00 2.8 4 Oeste 5 Oeste 0 -- -- 98
2019-12-10 00:00:00 3.9 0 Calma 5 Sur 0 -- -- 98
2019-12-09 23:00:00 3.1 3 Sudoeste 4 Sudoeste 0 -- -- 95
2019-12-09 22:00:00 4.3 0 Calma 9 Sudoeste 0 -- -- 96
2019-12-09 21:00:00 4.5 5 Sudoeste 12 Oeste 0 -- -- 95
2019-12-09 20:00:00 5.5 10 Oeste 13 Oeste 0 -- -- 93
2019-12-09 19:00:00 5.6 11 Oeste 12 Noroeste 0 -- -- 92
2019-12-09 18:00:00 7.4 9 Noroeste 14 Noroeste 0 -- -- 85
2019-12-09 17:00:00 9.6 12 Noroeste 18 Oeste 0 -- -- 81
2019-12-09 16:00:00 11.5 10 Oeste 19 Sudoeste 0 -- -- 66
2019-12-09 15:00:00 12.5 11 Oeste 18 Oeste 0 -- -- 50
2019-12-09 14:00:00 12.4 12 Oeste 19 Sudoeste 0 -- -- 49
2019-12-09 13:00:00 10.9 12 Sudoeste 23 Sudoeste 0 -- -- 60
2019-12-09 12:00:00 8.3 15 Sudoeste 26 Sudoeste 0 -- -- 96
2019-12-09 11:00:00 5.4 14 Sudoeste 25 Sudoeste 0 -- -- 100
2019-12-09 10:00:00 3.7 8 Sudoeste 16 Oeste 0 -- -- 100
2019-12-09 09:00:00 3.6 10 Oeste 23 Oeste 0 -- -- 100
2019-12-09 08:00:00 5 12 Oeste 20 Oeste 0 -- -- 100
2019-12-09 07:00:00 4.6 12 Oeste 22 Sudoeste 0 -- -- 100
2019-12-09 06:00:00 5.5 15 Sudoeste 22 Sudoeste 0 -- -- 100
2019-12-09 05:00:00 5.7 14 Oeste 19 Oeste 0 -- -- 100
2019-12-09 04:00:00 7 11 Oeste 20 Sudoeste 0 -- -- 100
2019-12-09 03:00:00 5.8 8 Oeste 10 Oeste 0.2 -- -- 100
2019-12-09 02:00:00 7.1 10 Noroeste 15 Noroeste 0 -- -- 100
2019-12-09 01:00:00 8.1 9 Noroeste 12 Noroeste 0 -- -- 100
2019-12-09 00:00:00 7.6 9 Oeste 14 Oeste 0 -- -- 100
2019-12-08 23:00:00 8.9 10 Oeste 16 Oeste 0 -- -- 100
2019-12-08 22:00:00 9.2 9 Noroeste 18 Oeste 0 -- -- 100
2019-12-08 21:00:00 9.3 17 Oeste 28 Oeste 0 -- -- 100
2019-12-08 20:00:00 9.3 19 Oeste 27 Oeste 0 -- -- 100
2019-12-08 19:00:00 9.4 16 Oeste 27 Oeste 0 -- -- 100
2019-12-08 18:00:00 9.3 15 Oeste 28 Sudoeste 0 -- -- 99
2019-12-08 17:00:00 9.5 17 Oeste 27 Oeste 0 -- -- 99
2019-12-08 16:00:00 9.5 17 Oeste 27 Oeste 0.4 -- -- 97
2019-12-08 15:00:00 9.7 16 Oeste 26 Oeste 0 -- -- 96
2019-12-08 14:00:00 10.8 21 Oeste 28 Oeste 0 -- -- 86
2019-12-08 13:00:00 10.9 19 Oeste 27 Oeste 0 -- -- 84
2019-12-08 12:00:00 10.1 13 Oeste 22 Oeste 0 -- -- 78
2019-12-08 11:00:00 9.2 14 Sudoeste 21 Sudoeste 0 -- -- 78
2019-12-08 10:00:00 7.9 14 Sudoeste 21 Oeste 0 -- -- 78
2019-12-08 09:00:00 7.2 13 Sudoeste 19 Sudoeste 0 -- -- 78
2019-12-08 08:00:00 5.7 11 Oeste 19 Sudoeste 0 -- -- 78
2019-12-08 07:00:00 5.3 14 Sudoeste 22 Sudoeste 0 -- -- 78
2019-12-08 06:00:00 5.4 10 Sudoeste 19 Sudoeste 0 -- -- 85
2019-12-08 05:00:00 5.2 13 Sudoeste 21 Sudoeste 0 -- -- 88
2019-12-08 04:00:00 4.3 12 Sudoeste 17 Oeste 0 -- -- 91
2019-12-08 03:00:00 4.3 10 Sudoeste 14 Sudoeste 0 -- -- 91
2019-12-08 02:00:00 4 6 Sudoeste 14 Sudoeste 0 -- -- 86
2019-12-08 01:00:00 5.8 10 Sudoeste 17 Sudoeste 0 -- -- 90
2019-12-08 00:00:00 4.2 8 Oeste 11 Sudoeste 0 -- -- 94
2019-12-07 23:00:00 5.2 6 Sudoeste 9 Sudoeste 0 -- -- 92
2019-12-07 22:00:00 4.1 3 Sudoeste 5 Sudoeste 0 -- -- 97
2019-12-07 21:00:00 4.9 2 Sudoeste 5 Sudoeste 0 -- -- 97
2019-12-07 20:00:00 6.4 4 Sur 10 Sur 0 -- -- 95
2019-12-07 19:00:00 6.6 4 Sur 8 Sur 0 -- -- 95
2019-12-07 18:00:00 7.4 4 Norte 9 Norte 0 -- -- 92
2019-12-07 17:00:00 9.8 6 Norte 9 Norte 0 -- -- 86
2019-12-07 16:00:00 11.1 0 Calma 10 Norte 0 -- -- 72
2019-12-07 15:00:00 10.6 6 Norte 12 Noroeste 0 -- -- 73
2019-12-07 14:00:00 9.9 4 Norte 8 Norte 0 -- -- 81
2019-12-07 13:00:00 8.8 7 Norte 15 Norte 0 -- -- 89
2019-12-07 12:00:00 10.2 3 Nordeste 11 Norte 0 -- -- 78
2019-12-07 11:00:00 8.3 3 Sur 10 Sur 0 -- -- 89
2019-12-07 10:00:00 4.5 3 Sur 5 Sur 0 -- -- 98
2019-12-07 09:00:00 2.1 0 Calma 8 Norte 0 -- -- 98
2019-12-07 08:00:00 2.4 8 Oeste 10 Oeste 0 -- -- 95
2019-12-07 07:00:00 1.5 4 Oeste 9 Sudoeste 0 -- -- 99
2019-12-07 06:00:00 2.9 5 Sudoeste 8 Sudoeste 0.2 -- -- 100
2019-12-07 05:00:00 2.4 3 Sur 7 Oeste 0 -- -- 100
2019-12-07 04:00:00 1.6 0 Calma 4 Sudoeste 0 -- -- 100
2019-12-07 03:00:00 2.4 3 Sudoeste 6 Sudoeste 0 -- -- 100
2019-12-07 02:00:00 1.7 6 Oeste 8 Oeste 0 -- -- 100
2019-12-07 01:00:00 1.7 4 Oeste 8 Oeste 0 -- -- 99
2019-12-07 00:00:00 3.1 2 Sur 9 Sudeste 0 -- -- 98
2019-12-06 23:00:00 4.2 6 Sur 9 Sur 0 -- -- 99
2019-12-06 22:00:00 4.6 0 Calma -- -- 0 -- -- 99
2019-12-06 21:00:00 4.3 2 Nordeste 8 Sur 0 -- -- 98
2019-12-06 20:00:00 5.4 5 Sur 8 Sur 0 -- -- 97
2019-12-06 19:00:00 5.9 0 Calma 2 Noroeste 0 -- -- 96
2019-12-06 18:00:00 7.1 2 Norte 9 Norte 0 -- -- 91
2019-12-06 17:00:00 8.6 6 Norte 12 Norte 0 -- -- 88
2019-12-06 16:00:00 8.9 9 Norte 15 Norte 0 -- -- 88
2019-12-06 15:00:00 9 8 Norte 14 Nordeste 0 -- -- 86
2019-12-06 14:00:00 8.6 6 Norte 12 Norte 0 -- -- 89
2019-12-06 13:00:00 7.4 4 Este 8 Este 0 -- -- 90
2019-12-06 12:00:00 5.3 5 Norte 15 Norte 0 -- -- 93
2019-12-06 11:00:00 8.1 6 Sudeste 13 Sur 0 -- -- 87
2019-12-06 10:00:00 3.3 8 Sur 11 Sudeste 0 -- -- 100
2019-12-06 09:00:00 0.2 5 Sur 6 Sur 0 -- -- 100
2019-12-06 08:00:00 -0.6 4 Noroeste 6 Noroeste 0 -- -- 100
2019-12-06 07:00:00 0.3 2 Sudeste 8 Sur 0 -- -- 100
2019-12-06 06:00:00 -0.3 2 Sudeste 6 Este 0 -- -- 100
2019-12-06 05:00:00 1 2 Este 7 Sur 0 -- -- 100
2019-12-06 04:00:00 1.3 5 Sur 9 Sur 0 -- -- 100
2019-12-06 03:00:00 1 0 Calma 10 Noroeste 0 -- -- 99
2019-12-06 02:00:00 0.8 7 Noroeste 9 Noroeste 0 -- -- 98
2019-12-06 01:00:00 1.8 3 Sur 8 Sur 0 -- -- 95
2019-12-06 00:00:00 3.1 6 Sur 8 Sur 0 -- -- 97
2019-12-05 23:00:00 3 2 Sur 4 Sur 0 -- -- 97
2019-12-05 22:00:00 3.5 2 Norte 4 Norte 0 -- -- 95
2019-12-05 21:00:00 4.1 2 Norte 15 Norte 0 -- -- 94
2019-12-05 20:00:00 5.1 12 Norte 17 Norte 0 -- -- 94
2019-12-05 19:00:00 5.4 3 Sudoeste 6 Sur 0 -- -- 91
2019-12-05 18:00:00 6.9 0 Calma 9 Sudeste 0 -- -- 85
2019-12-05 17:00:00 8 5 Sudeste 14 Este 0 -- -- 82
2019-12-05 16:00:00 8.2 9 Sudeste 19 Este 0 -- -- 81
2019-12-05 15:00:00 7.4 11 Este 22 Este 0 -- -- 84
2019-12-05 14:00:00 7.1 18 Sudeste 26 Este 0 -- -- 85
2019-12-05 13:00:00 6.1 11 Nordeste 19 Este 0 -- -- 90
2019-12-05 12:00:00 5.4 13 Este 23 Este 0 -- -- 93
2019-12-05 11:00:00 4.2 11 Nordeste 15 Nordeste 0 -- -- 97
2019-12-05 10:00:00 3.6 10 Este 19 Este 0 -- -- 97
2019-12-05 09:00:00 3.3 6 Nordeste 15 Nordeste 0 -- -- 97
2019-12-05 08:00:00 3.3 9 Nordeste 20 Nordeste 0 -- -- 98
2019-12-05 07:00:00 3.2 3 Norte 5 Norte 0 -- -- 97
2019-12-05 06:00:00 3.2 4 Noroeste 6 Noroeste 0 -- -- 96
2019-12-05 05:00:00 3 3 Noroeste 4 Oeste 0 -- -- 96
2019-12-05 04:00:00 2.5 0 Calma 3 Este 0 -- -- 97
2019-12-05 03:00:00 2.2 0 Calma 6 Nordeste 0 -- -- 98
2019-12-05 02:00:00 1.9 0 Calma 14 Nordeste 0 -- -- 97
2019-12-05 01:00:00 2.4 9 Nordeste 15 Nordeste 0 -- -- 98
2019-12-05 00:00:00 2.3 4 Nordeste 9 Nordeste 0 -- -- 98
2019-12-04 23:00:00 2.2 2 Noroeste 4 Noroeste 0 -- -- 97
2019-12-04 22:00:00 3.4 0 Calma 5 Sudoeste 0 -- -- 98
2019-12-04 21:00:00 3.6 5 Sudoeste 6 Sudoeste 0 -- -- 98
2019-12-04 20:00:00 3.9 3 Sudoeste 5 Sudoeste 0 -- -- 97
2019-12-04 19:00:00 3.7 0 Calma 5 Sur 0 -- -- 97
2019-12-04 18:00:00 3.6 3 Oeste 5 Sur 0 -- -- 96
2019-12-04 17:00:00 3.5 2 Sudeste 4 Sudeste 0 -- -- 95
2019-12-04 16:00:00 3.2 0 Calma 6 Norte 0 -- -- 97
2019-12-04 15:00:00 2.5 7 Norte 14 Norte 0 -- -- 98
2019-12-04 14:00:00 2.2 8 Nordeste 14 Noroeste 0 -- -- 96
2019-12-04 13:00:00 2.3 10 Noroeste 13 Noroeste 0 -- -- 98
2019-12-04 12:00:00 1.9 4 Sudeste 13 Sudeste 0 -- -- 100
2019-12-04 11:00:00 0 4 Sur 8 Sur 0 -- -- 100
2019-12-04 10:00:00 -1 3 Nordeste 11 Nordeste 0 -- -- 100
2019-12-04 09:00:00 -1.1 4 Norte 7 Noroeste 0 -- -- 100
2019-12-04 08:00:00 -1.1 2 Noroeste 9 Oeste 0 -- -- 99
2019-12-04 07:00:00 -1.1 3 Oeste 9 Noroeste 0 -- -- 97
2019-12-04 06:00:00 -0.8 5 Noroeste 10 Nordeste 0 -- -- 95
2019-12-04 05:00:00 3.1 3 Nordeste 8 Sur 0 -- -- 84
2019-12-04 04:00:00 3 6 Sur 9 Sur 0 -- -- 94
2019-12-04 03:00:00 2 8 Sudeste 12 Sudeste 0 -- -- 99
2019-12-04 02:00:00 0.7 4 Sudeste 8 Este 0 -- -- 99
2019-12-04 01:00:00 -0.6 2 Este 8 Sudeste 0 -- -- 98
2019-12-04 00:00:00 -0.3 2 Sudeste 7 Sudeste 0 -- -- 97
2019-12-03 23:00:00 0.1 4 Sudeste 8 Este 0 -- -- 95
2019-12-03 22:00:00 0.3 0 Calma 10 Este 0 -- -- 95
2019-12-03 21:00:00 1.2 10 Sudeste 11 Sudeste 0 -- -- 93
2019-12-03 20:00:00 1.1 9 Sudeste 16 Este 0 -- -- 94
2019-12-03 19:00:00 1.6 8 Este 10 Este 0 -- -- 92
2019-12-03 18:00:00 3 5 Nordeste 11 Nordeste 0 -- -- 86
2019-12-03 17:00:00 4.3 6 Nordeste 14 Este 0 -- -- 82
2019-12-03 16:00:00 4.5 7 Este 14 Este 0 -- -- 82
2019-12-03 15:00:00 4.4 10 Nordeste 18 Este 0 -- -- 84
2019-12-03 14:00:00 3.9 13 Este 20 Este 0 -- -- 86
2019-12-03 13:00:00 1.9 12 Este 20 Este 0 -- -- 91
2019-12-03 12:00:00 0.7 14 Este 21 Este 0 -- -- 95
2019-12-03 11:00:00 -0.1 17 Este 24 Este 0 -- -- 97
2019-12-03 10:00:00 -0.4 13 Este 21 Este 0 -- -- 98
2019-12-03 09:00:00 -0.6 11 Este 15 Este 0 -- -- 99
2019-12-03 08:00:00 -1 9 Sudeste 23 Este 0 -- -- 99
2019-12-03 07:00:00 -2.4 9 Este 11 Este 0 -- -- 99
2019-12-03 06:00:00 -1.9 5 Este 6 Este 0 -- -- 98
2019-12-03 05:00:00 -1.8 2 Nordeste 6 Este 0 -- -- 98
2019-12-03 04:00:00 -1.3 4 Este 5 Este 0 -- -- 98
2019-12-03 03:00:00 -1.4 5 Nordeste 6 Nordeste 0 -- -- 97
2019-12-03 02:00:00 -0.9 4 Este 12 Este 0 -- -- 96
2019-12-03 01:00:00 -0.3 7 Nordeste 13 Este 0 -- -- 94
2019-12-03 00:00:00 0.6 10 Nordeste 18 Este 0 -- -- 94
2019-12-02 23:00:00 0.7 11 Este 16 Este 0 -- -- 96
2019-12-02 22:00:00 1.2 8 Este 21 Este 0 -- -- 93
2019-12-02 21:00:00 2.2 14 Nordeste 31 Nordeste 0 -- -- 93
2019-12-02 20:00:00 3.2 19 Nordeste 28 Nordeste 0 -- -- 91
2019-12-02 19:00:00 4.3 21 Nordeste 30 Nordeste 0 -- -- 88
2019-12-02 18:00:00 5.2 17 Nordeste 35 Nordeste 0 -- -- 89
2019-12-02 17:00:00 6.5 25 Nordeste 34 Nordeste 0 -- -- 82
2019-12-02 16:00:00 7.3 28 Nordeste 37 Nordeste 0 -- -- 78
2019-12-02 15:00:00 7.6 24 Este 45 Este 0 -- -- 75
2019-12-02 14:00:00 7.1 27 Este 41 Nordeste 0 -- -- 76
2019-12-02 13:00:00 6.5 26 Este 36 Este 0 -- -- 83
2019-12-02 12:00:00 5.7 24 Este 33 Este 0 -- -- 90
2019-12-02 11:00:00 4.4 21 Este 30 Este 0 -- -- 100
2019-12-02 10:00:00 3 12 Nordeste 19 Este 0 -- -- 100
2019-12-02 09:00:00 1.5 10 Nordeste 18 Este 0 -- -- 100
2019-12-02 08:00:00 1.8 12 Nordeste 23 Nordeste 0 -- -- 100
2019-12-02 07:00:00 1.8 9 Nordeste 21 Nordeste 0 -- -- 100
2019-12-02 06:00:00 2.4 12 Nordeste 18 Nordeste 0 -- -- 100
2019-12-02 05:00:00 2.7 12 Nordeste 19 Nordeste 0 -- -- 100
2019-12-02 04:00:00 2.9 11 Nordeste 24 Nordeste 0 -- -- 100
2019-12-02 03:00:00 3.1 16 Nordeste 24 Nordeste 0 -- -- 100
2019-12-02 02:00:00 3.9 17 Nordeste 27 Nordeste 0 -- -- 100
2019-12-02 01:00:00 4.5 18 Nordeste 28 Nordeste 0.8 -- -- 100
2019-12-02 00:00:00 4.8 21 Nordeste 30 Nordeste 1.2 -- -- 100
2019-12-01 23:00:00 5.1 20 Nordeste 29 Nordeste 0.8 -- -- 100
2019-12-01 22:00:00 4.9 15 Nordeste 22 Nordeste 0.8 -- -- 99
2019-12-01 21:00:00 4.9 17 Nordeste 26 Nordeste 0 -- -- 98
2019-12-01 20:00:00 5.4 17 Nordeste 23 Este 0 -- -- 98
2019-12-01 19:00:00 5.7 12 Nordeste 27 Este 1.2 -- -- 97
2019-12-01 18:00:00 6.3 14 Este 24 Este 0 -- -- 92
2019-12-01 17:00:00 7 19 Este 22 Este 0 -- -- 89
2019-12-01 16:00:00 8 13 Este 19 Este 0 -- -- 81
2019-12-01 15:00:00 8.1 9 Sudeste 15 Este 0 -- -- 81
2019-12-01 14:00:00 6.9 8 Sudeste 17 Sudeste 0 -- -- 87
2019-12-01 13:00:00 6.2 9 Sudeste 18 Sudeste 0 -- -- 89
2019-12-01 12:00:00 5.4 12 Sudeste 21 Sudeste 0 -- -- 93
2019-12-01 11:00:00 5.2 12 Sur 23 Sudoeste 0.6 -- -- 96
2019-12-01 10:00:00 4.7 6 Sur 9 Sudeste 2.8 -- -- 97
2019-12-01 09:00:00 4.9 4 Norte 8 Sudeste 1 -- -- 93
2019-12-01 08:00:00 5.3 4 Sur 13 Sur 0 -- -- 90
2019-12-01 07:00:00 4.8 4 Sudeste 7 Sur 0.2 -- -- 92
2019-12-01 06:00:00 5.4 4 Sudoeste 18 Sudoeste 0 -- -- 85
2019-12-01 05:00:00 5.2 8 Sudoeste 34 Sudoeste 0 -- -- 83
2019-12-01 04:00:00 4.7 10 Sudoeste 21 Sudoeste 0 -- -- 82
2019-12-01 03:00:00 4.3 11 Sudoeste 21 Sudoeste 0 -- -- 83
2019-12-01 02:00:00 3.9 8 Sudoeste 19 Sudoeste 0 -- -- 88
2019-12-01 01:00:00 4.1 11 Sudoeste 17 Sudoeste 0 -- -- 89
2019-12-01 00:00:00 4.1 9 Sudoeste 16 Sudoeste 0 -- -- 90
2019-11-30 23:00:00 4.5 8 Sudoeste 18 Sudoeste 0 -- -- 94
2019-11-30 22:00:00 5.1 9 Sudoeste 16 Sudoeste 0 -- -- 96
2019-11-30 21:00:00 5.4 4 Sudoeste 22 Sudoeste 0 -- -- 94
2019-11-30 20:00:00 6.6 15 Sudoeste 31 Oeste 0.8 -- -- 96
2019-11-30 19:00:00 6.7 10 Oeste 22 Noroeste 1.6 -- -- 97
2019-11-30 18:00:00 7.1 18 Oeste 42 Oeste 1 -- -- 93
2019-11-30 17:00:00 8 30 Noroeste 47 Noroeste 3.2 -- -- 98
2019-11-30 16:00:00 9.9 34 Noroeste 60 Oeste 1.6 -- -- 92
2019-11-30 15:00:00 13 22 Sudoeste 45 Oeste 0 -- -- 82
2019-11-30 14:00:00 13.1 27 Sudoeste 46 Sudoeste 0 -- -- 80
2019-11-30 13:00:00 13.1 28 Sudoeste 48 Sudoeste 0 -- -- 79
2019-11-30 12:00:00 12.7 19 Sudoeste 45 Sudoeste 0 -- -- 82
2019-11-30 11:00:00 12.4 23 Sudoeste 42 Sudoeste 0 -- -- 82
2019-11-30 10:00:00 11.2 15 Sudoeste 29 Sudoeste 0 -- -- 86
2019-11-30 09:00:00 10.3 14 Sudoeste 35 Sudoeste 0 -- -- 89
2019-11-30 08:00:00 9.7 12 Sudoeste 27 Sudoeste 0 -- -- 91
2019-11-30 07:00:00 9.8 6 Sudoeste 15 Sudoeste 0 -- -- 91
2019-11-30 06:00:00 10 10 Sudoeste 26 Sudoeste 0 -- -- 93
2019-11-30 05:00:00 10.7 19 Sudoeste 31 Sudoeste 0 -- -- 96
2019-11-30 04:00:00 10.9 19 Oeste 32 Oeste 0 -- -- 97
2019-11-30 03:00:00 10.7 15 Oeste 23 Oeste 0 -- -- 96
2019-11-30 02:00:00 10.7 12 Oeste 24 Sudoeste 0 -- -- 95
2019-11-30 01:00:00 11.2 17 Sudoeste 30 Sudoeste 0 -- -- 95
2019-11-30 00:00:00 11.3 18 Sudoeste 31 Sudoeste 0 -- -- 95
2019-11-29 23:00:00 11.3 14 Oeste 30 Sudoeste 0 -- -- 94
2019-11-29 22:00:00 11.3 14 Sudoeste 27 Sudoeste 0 -- -- 96
2019-11-29 21:00:00 10.7 6 Oeste 12 Sudoeste 0 -- -- 96
2019-11-29 20:00:00 10.9 8 Sudoeste 19 Oeste 0 -- -- 95
2019-11-29 19:00:00 11.1 13 Oeste 19 Oeste 0 -- -- 93
2019-11-29 18:00:00 11.5 12 Oeste 19 Oeste 0 -- -- 94
2019-11-29 17:00:00 12.2 15 Oeste 24 Oeste 0 -- -- 90
2019-11-29 16:00:00 12.5 18 Oeste 25 Oeste 0 -- -- 92
2019-11-29 15:00:00 12.4 15 Oeste 30 Oeste 0.2 -- -- 93
2019-11-29 14:00:00 11.8 21 Sudoeste 39 Oeste 0.2 -- -- 94
2019-11-29 13:00:00 12.4 22 Oeste 31 Oeste 0 -- -- 96
2019-11-29 12:00:00 11.4 15 Oeste 31 Sudoeste 0.2 -- -- 98
2019-11-29 11:00:00 11.2 18 Oeste 29 Oeste 0.2 -- -- 98
2019-11-29 10:00:00 10.9 14 Oeste 28 Oeste 0.2 -- -- 98
2019-11-29 09:00:00 10.8 14 Oeste 22 Sudoeste 0.2 -- -- 97
2019-11-29 08:00:00 10.9 15 Oeste 25 Oeste 0 -- -- 96
2019-11-29 07:00:00 10.8 13 Oeste 32 Oeste 0 -- -- 95
2019-11-29 06:00:00 10.6 20 Oeste 33 Oeste 0 -- -- 96
2019-11-29 05:00:00 10.5 19 Oeste 36 Oeste 0 -- -- 97
2019-11-29 04:00:00 10.4 22 Oeste 41 Sudoeste 0 -- -- 96
2019-11-29 03:00:00 10.5 19 Oeste 34 Oeste 0 -- -- 95
2019-11-29 02:00:00 10.5 21 Oeste 44 Oeste 0 -- -- 94
2019-11-29 01:00:00 10.5 26 Oeste 46 Sudoeste 0 -- -- 93
2019-11-29 00:00:00 10.6 26 Oeste 46 Sudoeste 0 -- -- 91
2019-11-28 23:00:00 10.7 25 Sudoeste 49 Oeste 0 -- -- 87
2019-11-28 22:00:00 10.5 28 Sudoeste 53 Oeste 0 -- -- 84
2019-11-28 21:00:00 10.2 24 Sudoeste 50 Sudoeste 0 -- -- 85
2019-11-28 20:00:00 10 29 Sudoeste 53 Sudoeste 0 -- -- 86
2019-11-28 19:00:00 9.9 30 Sudoeste 49 Sudoeste 0 -- -- 87
2019-11-28 18:00:00 9.8 26 Sudoeste 48 Oeste 0 -- -- 84
2019-11-28 17:00:00 10.4 29 Oeste 52 Sudoeste 0 -- -- 87
2019-11-28 16:00:00 10.8 24 Oeste 48 Sudoeste 0 -- -- 86
2019-11-28 15:00:00 11.6 28 Oeste 46 Sudoeste 0 -- -- 77
2019-11-28 14:00:00 11.2 31 Oeste 52 Sudoeste 0 -- -- 79
2019-11-28 13:00:00 10.9 33 Oeste 54 Sudoeste 0 -- -- 81
2019-11-28 12:00:00 10.2 26 Sudoeste 50 Oeste 0 -- -- 85
2019-11-28 11:00:00 10.1 21 Sudoeste 36 Sudoeste 0 -- -- 85
2019-11-28 10:00:00 9.5 21 Sudoeste 43 Oeste 0 -- -- 85
2019-11-28 09:00:00 8.5 26 Sudoeste 41 Sudoeste 0 -- -- 87
2019-11-28 08:00:00 8.5 22 Sudoeste 42 Sudoeste 0 -- -- 88
2019-11-28 07:00:00 7.6 27 Sudoeste 57 Oeste 0 -- -- 93
2019-11-28 06:00:00 7.7 26 Sudoeste 42 Oeste 0 -- -- 92
2019-11-28 05:00:00 7.3 23 Sudoeste 40 Sudoeste 0 -- -- 92
2019-11-28 04:00:00 7.6 21 Oeste 44 Oeste 0 -- -- 91
2019-11-28 03:00:00 8.3 22 Oeste 34 Sudoeste 0 -- -- 85
2019-11-28 02:00:00 8.4 20 Sudoeste 35 Sudoeste 0 -- -- 84
2019-11-28 01:00:00 8.2 17 Oeste 35 Oeste 0 -- -- 85
2019-11-28 00:00:00 8.1 22 Oeste 38 Oeste 0 -- -- 87
2019-11-27 23:00:00 8.1 22 Oeste 39 Sudoeste 0 -- -- 88
2019-11-27 22:00:00 8.2 24 Oeste 39 Oeste 0 -- -- 88
2019-11-27 21:00:00 7.9 23 Oeste 39 Oeste 0 -- -- 91
2019-11-27 20:00:00 8.1 22 Oeste 36 Oeste 0 -- -- 90
2019-11-27 19:00:00 8.3 21 Oeste 37 Oeste 0 -- -- 87
2019-11-27 18:00:00 9.2 21 Oeste 40 Oeste 0 -- -- 79
2019-11-27 17:00:00 9.5 27 Oeste 45 Sudoeste 0 -- -- 78
2019-11-27 16:00:00 9.8 30 Oeste 48 Oeste 0 -- -- 77
2019-11-27 15:00:00 10.1 28 Oeste 46 Sudoeste 0 -- -- 74
2019-11-27 14:00:00 10.1 28 Oeste 46 Oeste 0 -- -- 74
2019-11-27 06:00:00 -- -- -- -- -- -- -- -- --
2019-11-27 05:00:00 6.6 27 Oeste 45 Oeste 0 -- -- 86
2019-11-27 04:00:00 6.8 30 Oeste 56 Oeste 0 -- -- 85
2019-11-27 03:00:00 7.6 44 Oeste 57 Oeste 0 -- -- 93
2019-11-27 02:00:00 8.4 26 Oeste 40 Oeste 0 -- -- 96
2019-11-27 01:00:00 8.7 30 Oeste 51 Oeste 0.4 -- -- 95
2019-11-27 00:00:00 9.5 31 Oeste 53 Oeste 4.8 -- -- 96
2019-11-26 23:00:00 9.9 32 Oeste 62 Sudoeste 0.6 -- -- 95
2019-11-26 22:00:00 11 34 Oeste 63 Sudoeste 0 -- -- 80
2019-11-26 21:00:00 11.3 33 Sudoeste 63 Oeste 0 -- -- 78
2019-11-26 20:00:00 11.6 40 Oeste 78 Oeste 0.2 -- -- 81
2019-11-26 19:00:00 12.8 37 Sudoeste 65 Sudoeste 0 -- -- 84
2019-11-26 18:00:00 13.7 31 Sudoeste 58 Sudoeste 0 -- -- 78
2019-11-26 17:00:00 14.2 27 Sudoeste 53 Sudoeste 0 -- -- 74
2019-11-26 16:00:00 15.2 21 Sudoeste 40 Sudoeste 0 -- -- 70
2019-11-26 15:00:00 14.4 25 Sudoeste 49 Sudoeste 0 -- -- 72
2019-11-26 14:00:00 14.9 23 Sudoeste 49 Sudoeste 0 -- -- 71
2019-11-26 13:00:00 14.1 27 Sudoeste 55 Oeste 0 -- -- 73
2019-11-26 12:00:00 14.5 24 Sudoeste 40 Sudoeste 0 -- -- 73
2019-11-26 11:00:00 12.6 18 Sudoeste 32 Sudoeste 0 -- -- 84
2019-11-26 10:00:00 11.8 16 Sudoeste 35 Sudoeste 0 -- -- 91
2019-11-26 09:00:00 11.7 20 Sudoeste 36 Sudoeste 0 -- -- 88
2019-11-26 08:00:00 10.7 16 Sudoeste 31 Sudoeste 0 -- -- 89
2019-11-26 07:00:00 10.7 15 Oeste 30 Sudoeste 0 -- -- 90
2019-11-26 06:00:00 10.2 18 Sudoeste 32 Sudoeste 0 -- -- 92
2019-11-26 05:00:00 8.5 14 Oeste 27 Oeste 0 -- -- 89
2019-11-26 04:00:00 8.9 11 Sudoeste 21 Sudoeste 0 -- -- 88
2019-11-26 03:00:00 7.9 7 Sudoeste 19 Oeste 0 -- -- 96
2019-11-26 02:00:00 7.5 4 Sudoeste 12 Sudoeste 0 -- -- 98
2019-11-26 01:00:00 8.3 8 Sudoeste 18 Sudoeste 0 -- -- 97
2019-11-26 00:00:00 8.7 6 Sudoeste 16 Oeste 0 -- -- 96
2019-11-25 23:00:00 8.8 6 Sudoeste 18 Sudoeste 0 -- -- 94
2019-11-25 22:00:00 8.6 8 Sudoeste 17 Sudoeste 0 -- -- 93
2019-11-25 21:00:00 9.4 13 Oeste 28 Oeste 0 -- -- 90
2019-11-25 20:00:00 9.8 15 Oeste 28 Oeste 0 -- -- 90
2019-11-25 19:00:00 9.9 14 Oeste 24 Oeste 0 -- -- 88
2019-11-25 18:00:00 10.4 13 Oeste 33 Oeste 0 -- -- 87
2019-11-25 17:00:00 11.5 19 Oeste 27 Oeste 0 -- -- 83
2019-11-25 16:00:00 12.1 19 Oeste 42 Oeste 0 -- -- 79
2019-11-25 15:00:00 12.4 33 Oeste 49 Oeste 0 -- -- 75
2019-11-25 14:00:00 12.7 31 Oeste 46 Oeste 0 -- -- 73
2019-11-25 13:00:00 11.7 29 Oeste 38 Oeste 0 -- -- 82
2019-11-25 12:00:00 11.8 26 Oeste 44 Oeste 0 -- -- 79
2019-11-25 11:00:00 11.6 23 Oeste 37 Sudoeste 0 -- -- 81
2019-11-25 10:00:00 10.2 19 Sudoeste 32 Sudoeste 0 -- -- 85
2019-11-25 09:00:00 9.3 18 Sudoeste 32 Oeste 0 -- -- 87
2019-11-25 08:00:00 9.6 17 Oeste 33 Oeste 0 -- -- 89
2019-11-25 07:00:00 9.3 18 Oeste 33 Sudoeste 0 -- -- 92
2019-11-25 06:00:00 9.4 21 Oeste 38 Oeste 0 -- -- 93
2019-11-25 05:00:00 9.2 25 Oeste 46 Oeste 0.2 -- -- 97
2019-11-25 04:00:00 9 21 Oeste 41 Oeste 0.4 -- -- 98
2019-11-25 03:00:00 9.6 26 Oeste 55 Oeste 0 -- -- 94
2019-11-25 02:00:00 10.3 31 Oeste 53 Sudoeste 0 -- -- 89
2019-11-25 01:00:00 10 28 Sudoeste 50 Oeste 0 -- -- 89
2019-11-25 00:00:00 9.9 29 Sudoeste 54 Sudoeste 0 -- -- 87
2019-11-24 23:00:00 8.8 21 Sudoeste 39 Sudoeste 0 -- -- 89
2019-11-24 22:00:00 7.6 21 Sudoeste 37 Oeste 0 -- -- 91
2019-11-24 21:00:00 7.6 18 Sudoeste 38 Sudoeste 0 -- -- 89
2019-11-24 20:00:00 7.7 26 Oeste 40 Oeste 0 -- -- 88
2019-11-24 19:00:00 7.7 19 Oeste 34 Sudoeste 0 -- -- 83
2019-11-24 18:00:00 8 13 Oeste 30 Sudoeste 0 -- -- 78
2019-11-24 17:00:00 8.3 12 Oeste 31 Oeste 0 -- -- 77
2019-11-24 16:00:00 8.2 19 Oeste 38 Oeste 0 -- -- 76
2019-11-24 15:00:00 8.2 23 Oeste 37 Oeste 0 -- -- 77
2019-11-24 14:00:00 7.4 21 Oeste 32 Oeste 0 -- -- 76
2019-11-24 13:00:00 7.3 18 Oeste 30 Oeste 0 -- -- 76
2019-11-24 12:00:00 7 18 Oeste 30 Oeste 0 -- -- 75
2019-11-24 11:00:00 5.9 18 Oeste 28 Oeste 0 -- -- 83
2019-11-24 10:00:00 4.8 15 Oeste 25 Oeste 0 -- -- 89
2019-11-24 09:00:00 3.6 9 Oeste 20 Oeste 0 -- -- 95
2019-11-24 08:00:00 3.1 12 Oeste 32 Oeste 0 -- -- 96
2019-11-24 07:00:00 3.5 23 Oeste 36 Sudoeste 0 -- -- 94
2019-11-24 06:00:00 3.9 21 Oeste 32 Oeste 0 -- -- 93
2019-11-24 05:00:00 3.8 20 Oeste 38 Oeste 0 -- -- 93
2019-11-24 04:00:00 4.2 19 Oeste 37 Oeste 0 -- -- 93
2019-11-24 03:00:00 4.4 30 Oeste 41 Oeste 0 -- -- 94
2019-11-24 02:00:00 4 24 Oeste 36 Oeste 0 -- -- 94
2019-11-24 01:00:00 3.7 26 Oeste 37 Oeste 0 -- -- 94
2019-11-24 00:00:00 4.3 23 Oeste 36 Oeste 0 -- -- 92
2019-11-23 23:00:00 4.2 26 Oeste 40 Oeste 0 -- -- 91
2019-11-23 22:00:00 4.4 25 Oeste 36 Oeste 0 -- -- 89
2019-11-23 21:00:00 4.8 22 Oeste 37 Oeste 0 -- -- 86
2019-11-23 20:00:00 4.6 15 Oeste 26 Oeste 0 -- -- 86
2019-11-23 19:00:00 5.3 16 Oeste 27 Oeste 0 -- -- 82
2019-11-23 18:00:00 6.5 15 Oeste 37 Oeste 0 -- -- 77
2019-11-23 17:00:00 7.6 24 Oeste 41 Oeste 0 -- -- 72
2019-11-23 16:00:00 8.1 30 Oeste 51 Noroeste 0 -- -- 71
2019-11-23 15:00:00 7.9 37 Noroeste 50 Oeste 0 -- -- 72
2019-11-23 14:00:00 7.6 34 Oeste 52 Oeste 0 -- -- 73
2019-11-23 13:00:00 7.1 39 Oeste 50 Oeste 0 -- -- 77
2019-11-23 12:00:00 6.2 39 Oeste 55 Oeste 0 -- -- 81
2019-11-23 11:00:00 5.5 39 Oeste 54 Oeste 0 -- -- 84
2019-11-23 10:00:00 4.3 28 Oeste 53 Oeste 0 -- -- 88
2019-11-23 09:00:00 3.8 37 Oeste 54 Oeste 0 -- -- 87
2019-11-23 08:00:00 3.3 40 Oeste 59 Oeste 0 -- -- 89
2019-11-23 07:00:00 3.6 39 Oeste 59 Oeste 0 -- -- 85
2019-11-23 06:00:00 3.9 46 Oeste 69 Oeste 0 -- -- 85
2019-11-23 05:00:00 4.5 38 Oeste 66 Oeste 0.2 -- -- 86
2019-11-23 04:00:00 4.8 40 Oeste 64 Oeste 0 -- -- 88
2019-11-23 03:00:00 4.9 37 Oeste 58 Oeste 0 -- -- 88
2019-11-23 02:00:00 4.8 45 Oeste 64 Oeste 0 -- -- 88
2019-11-23 01:00:00 5.1 33 Oeste 55 Oeste 0 -- -- 90
2019-11-23 00:00:00 5.4 39 Oeste 62 Sudoeste 0.4 -- -- 91
2019-11-22 23:00:00 6.4 34 Oeste 62 Sudoeste 0.6 -- -- 89
2019-11-22 22:00:00 7.3 34 Oeste 55 Sudoeste 0 -- -- 87
2019-11-22 21:00:00 7.8 30 Oeste 59 Oeste 0 -- -- 83
2019-11-22 20:00:00 7.6 33 Oeste 54 Oeste 0 -- -- 81
2019-11-22 19:00:00 8.1 35 Oeste 54 Oeste 0 -- -- 77
2019-11-22 18:00:00 9 25 Oeste 53 Oeste 0 -- -- 79
2019-11-22 17:00:00 9.8 40 Oeste 55 Oeste 0.2 -- -- 87
2019-11-22 16:00:00 12.1 32 Oeste 61 Oeste 0 -- -- 81
2019-11-22 15:00:00 13.1 35 Sudoeste 64 Sudoeste 0 -- -- 78
2019-11-22 14:00:00 13 32 Sudoeste 53 Sudoeste 0 -- -- 76
2019-11-22 13:00:00 10.9 20 Sudoeste 57 Sudoeste 1.6 -- -- 82
2019-11-22 12:00:00 10.6 38 Sudoeste 61 Sudoeste 0.4 -- -- 81
2019-11-22 11:00:00 11.5 15 Sudoeste 33 Sur 0 -- -- 70
2019-11-22 10:00:00 8.1 8 Sur 17 Sudoeste 0 -- -- 84
2019-11-22 09:00:00 6.1 5 Sur 12 Sur 0 -- -- 94
2019-11-22 08:00:00 6.3 8 Sur 15 Sur 0.8 -- -- 92
2019-11-22 07:00:00 6.4 8 Sudoeste 15 Sur 0.6 -- -- 91
2019-11-22 06:00:00 6.7 8 Sudoeste 23 Sudoeste 0.2 -- -- 88
2019-11-22 05:00:00 6.9 12 Sur 25 Sur 0 -- -- 85
2019-11-22 04:00:00 6 5 Sudoeste 12 Sudoeste 0 -- -- 89
2019-11-22 03:00:00 6.2 5 Sur 18 Sudoeste 0 -- -- 85
2019-11-22 02:00:00 6 6 Sudoeste 17 Sudoeste 0 -- -- 84
2019-11-22 01:00:00 5.8 7 Sur 12 Sudoeste 0 -- -- 87
2019-11-22 00:00:00 5.8 4 Sudoeste 12 Sur 0 -- -- 87
2019-11-21 23:00:00 5.6 7 Sur 13 Sur 0 -- -- 87
2019-11-21 22:00:00 5.6 6 Sur 13 Sur 0 -- -- 89
2019-11-21 21:00:00 5.9 8 Sudoeste 14 Sudoeste 0 -- -- 90
2019-11-21 20:00:00 5.4 6 Sudoeste 15 Sudoeste 0 -- -- 92
2019-11-21 19:00:00 5.8 8 Sudoeste 19 Sudoeste 0 -- -- 93
2019-11-21 18:00:00 5.9 7 Sudoeste 19 Sudoeste 0 -- -- 90
2019-11-21 17:00:00 6.3 13 Sudoeste 34 Oeste 0.4 -- -- 90
2019-11-21 16:00:00 6.7 23 Oeste 33 Oeste 0 -- -- 87
2019-11-21 15:00:00 8.1 15 Oeste 28 Oeste 0.2 -- -- 86
2019-11-21 14:00:00 7.4 15 Oeste 27 Oeste 0 -- -- 89
2019-11-21 13:00:00 7.9 22 Noroeste 32 Oeste 0 -- -- 87
2019-11-21 12:00:00 6.5 19 Oeste 30 Oeste 0.2 -- -- 95
2019-11-21 11:00:00 6.1 15 Oeste 27 Sudoeste 0.4 -- -- 96
2019-11-21 10:00:00 5.7 13 Oeste 30 Oeste 0.2 -- -- 96
2019-11-21 09:00:00 5.3 13 Sudoeste 26 Sudoeste 0 -- -- 95
2019-11-21 08:00:00 4.7 7 Sudoeste 15 Sudoeste 0.2 -- -- 96
2019-11-21 07:00:00 4.2 5 Sudoeste 15 Sudoeste 0.6 -- -- 95
2019-11-21 06:00:00 4.6 10 Sudoeste 26 Sudoeste 0 -- -- 93
2019-11-21 05:00:00 4.5 16 Sudoeste 28 Sudoeste 0 -- -- 93
2019-11-21 04:00:00 3.9 8 Sudoeste 14 Sudoeste 0 -- -- 93
2019-11-21 03:00:00 3.9 9 Sudoeste 17 Sudoeste 0 -- -- 92
2019-11-21 02:00:00 3.8 9 Sudoeste 21 Sudoeste 0 -- -- 92
2019-11-21 01:00:00 3.3 11 Sudoeste 22 Sudoeste 0 -- -- 93
2019-11-21 00:00:00 3.1 11 Sudoeste 21 Sudoeste 0 -- -- 95
2019-11-20 23:00:00 3.3 11 Sudoeste 22 Sudoeste 0 -- -- 95
2019-11-20 22:00:00 3.6 8 Sudoeste 17 Sudoeste 0 -- -- 96
2019-11-20 21:00:00 3.9 6 Sudoeste 10 Oeste 0 -- -- 97
2019-11-20 20:00:00 3.7 6 Oeste 19 Sudoeste 0 -- -- 96
2019-11-20 19:00:00 4.3 10 Sudoeste 19 Oeste 0.2 -- -- 95
2019-11-20 18:00:00 4.5 16 Sudoeste 38 Oeste 1.4 -- -- 93
2019-11-20 17:00:00 6.4 17 Oeste 28 Oeste 0 -- -- 86
2019-11-20 16:00:00 6.4 11 Oeste 16 Oeste 0 -- -- 87
2019-11-20 15:00:00 6.5 4 Sudoeste 12 Sudoeste 0.2 -- -- 91
2019-11-20 14:00:00 6.3 6 Sudoeste 17 Sudoeste 0 -- -- 92
2019-11-20 13:00:00 5.7 10 Sudoeste 17 Sudoeste 0.6 -- -- 93
2019-11-20 12:00:00 5.1 5 Sudoeste 12 Sudoeste 0.4 -- -- 94
2019-11-20 11:00:00 4.8 4 Oeste 15 Sudoeste 0.2 -- -- 95
2019-11-20 10:00:00 4.1 7 Sudoeste 13 Sudoeste 0 -- -- 95
2019-11-20 09:00:00 3.8 8 Oeste 18 Oeste 0 -- -- 94
2019-11-20 08:00:00 4.4 10 Oeste 15 Oeste 0 -- -- 90
2019-11-20 07:00:00 4.3 4 Sudeste 10 Sudeste 0.4 -- -- 86
2019-11-20 06:00:00 4.4 3 Sudeste 14 Sudoeste 0 -- -- 89
2019-11-20 05:00:00 4.4 4 Sudoeste 9 Sudoeste 0 -- -- 88
2019-11-20 04:00:00 4.4 5 Oeste 14 Oeste 0 -- -- 87
2019-11-20 03:00:00 4.9 0 Calma 9 Sur 0 -- -- 71
2019-11-20 02:00:00 4.2 4 Sur 8 Sur 0 -- -- 80
2019-11-20 01:00:00 3.9 3 Sudoeste 9 Sudoeste 0 -- -- 84
2019-11-20 00:00:00 4.5 5 Sudoeste 8 Sudoeste 0 -- -- 80
2019-11-19 23:00:00 5.2 4 Sudoeste 9 Sudoeste 0 -- -- 80
2019-11-19 22:00:00 5.1 4 Sudoeste 13 Oeste 0 -- -- 82
2019-11-19 21:00:00 5.4 8 Sudoeste 12 Sudoeste 0 -- -- 79
2019-11-19 20:00:00 5.5 5 Sudoeste 9 Sudoeste 0 -- -- 79
2019-11-19 19:00:00 5.5 4 Sudoeste 8 Oeste 0 -- -- 77
2019-11-19 18:00:00 6.2 3 Sudoeste 8 Oeste 0 -- -- 71
2019-11-19 17:00:00 6.9 4 Oeste 15 Oeste 0 -- -- 68
2019-11-19 16:00:00 7.3 13 Oeste 19 Oeste 0 -- -- 60
2019-11-19 15:00:00 7.4 13 Oeste 19 Oeste 0 -- -- 61
2019-11-19 14:00:00 7.6 13 Oeste 20 Oeste 0 -- -- 63
2019-11-19 13:00:00 7.8 7 Oeste 13 Oeste 0 -- -- 68
2019-11-19 12:00:00 7.4 5 Oeste 9 Oeste 0 -- -- 66
2019-11-19 11:00:00 6.1 4 Sudoeste 11 Sudoeste 0 -- -- 78
2019-11-19 10:00:00 4.1 6 Sudoeste 10 Sudoeste 0 -- -- 83
2019-11-19 09:00:00 2.9 4 Sudoeste 12 Sudoeste 0 -- -- 84
2019-11-19 08:00:00 2 10 Sudoeste 16 Oeste 0 -- -- 87
2019-11-19 07:00:00 2.1 9 Sudoeste 15 Sudoeste 0 -- -- 85
2019-11-19 06:00:00 1.6 9 Sudoeste 15 Sudoeste 0 -- -- 87
2019-11-19 05:00:00 1.8 10 Sudoeste 14 Sudoeste 0 -- -- 84
2019-11-19 04:00:00 2.6 9 Sudoeste 13 Sudoeste 0 -- -- 81
2019-11-19 03:00:00 2.8 9 Sudoeste 13 Sudoeste 0 -- -- 81
2019-11-19 02:00:00 2.6 10 Sudoeste 15 Sudoeste 0 -- -- 82
2019-11-19 01:00:00 2.9 10 Sudoeste 14 Sudoeste 0 -- -- 82
2019-11-19 00:00:00 2.8 9 Sudoeste 14 Sudoeste 0 -- -- 83
2019-11-18 23:00:00 2.7 9 Sudoeste 13 Sudoeste 0 -- -- 86
2019-11-18 22:00:00 3.4 9 Sudoeste 16 Sudoeste 0 -- -- 84
2019-11-18 21:00:00 3.6 8 Sudoeste 11 Sudoeste 0 -- -- 85
2019-11-18 20:00:00 4 7 Sudoeste 13 Sudoeste 0 -- -- 86
2019-11-18 19:00:00 5 3 Sudoeste 8 Sudoeste 0 -- -- 85
2019-11-18 18:00:00 5.7 5 Sudoeste 13 Oeste 0 -- -- 81
2019-11-18 17:00:00 5.9 9 Oeste 13 Oeste 0 -- -- 80
2019-11-18 16:00:00 5.9 6 Norte 12 Noroeste 0 -- -- 79
2019-11-18 15:00:00 5.6 9 Noroeste 16 Norte 0 -- -- 81
2019-11-18 14:00:00 5.3 7 Noroeste 16 Norte 0 -- -- 82
2019-11-18 13:00:00 5.1 10 Noroeste 21 Norte 0 -- -- 83
2019-11-18 12:00:00 4.2 8 Noroeste 13 Noroeste 0 -- -- 91
2019-11-18 11:00:00 2.9 8 Oeste 14 Noroeste 0 -- -- 100
2019-11-18 10:00:00 0.8 13 Sudoeste 19 Sudoeste 0 -- -- 100
2019-11-18 09:00:00 -0.1 10 Sudoeste 19 Oeste 0 -- -- 100
2019-11-18 08:00:00 0.2 10 Oeste 17 Oeste 0 -- -- 100
2019-11-18 07:00:00 0.4 12 Oeste 15 Oeste 0 -- -- 99
2019-11-18 06:00:00 0.2 9 Oeste 12 Oeste 0 -- -- 99
2019-11-18 05:00:00 1 7 Sudoeste 15 Oeste 0 -- -- 99
2019-11-18 04:00:00 1.5 12 Oeste 22 Oeste 0 -- -- 98
2019-11-18 03:00:00 2 17 Oeste 25 Oeste 0 -- -- 98
2019-11-18 02:00:00 2.5 16 Oeste 26 Oeste 0 -- -- 97
2019-11-18 01:00:00 2.6 20 Oeste 32 Oeste 0 -- -- 95
2019-11-18 00:00:00 2.3 21 Oeste 32 Oeste 0 -- -- 95
2019-11-17 23:00:00 2.8 15 Oeste 24 Oeste 0 -- -- 96
2019-11-17 22:00:00 3.4 12 Oeste 27 Oeste 0 -- -- 96
2019-11-17 21:00:00 4.1 21 Oeste 28 Oeste 0 -- -- 95
2019-11-17 20:00:00 4.9 18 Oeste 33 Oeste 0 -- -- 94
2019-11-17 19:00:00 6.4 21 Oeste 40 Oeste 0.8 -- -- 97
2019-11-17 18:00:00 7.1 17 Noroeste 31 Oeste 2.8 -- -- 98
2019-11-17 17:00:00 7.4 21 Oeste 35 Oeste 0.2 -- -- 96
2019-11-17 16:00:00 7.9 23 Oeste 50 Oeste 0 -- -- 94
2019-11-17 15:00:00 8.4 28 Oeste 47 Oeste 0 -- -- 92
2019-11-17 14:00:00 8.1 31 Oeste 47 Oeste 0 -- -- 94
2019-11-17 13:00:00 7.8 27 Oeste 43 Sudoeste 0 -- -- 94
2019-11-17 12:00:00 7 26 Oeste 41 Oeste 0.4 -- -- 96
2019-11-17 11:00:00 5.9 25 Sudoeste 42 Oeste 0.2 -- -- 95
2019-11-17 10:00:00 5.6 29 Sudoeste 40 Sudoeste 0 -- -- 91
2019-11-17 09:00:00 4.7 14 Oeste 26 Oeste 0 -- -- 91
2019-11-17 08:00:00 4.4 15 Oeste 27 Oeste 0 -- -- 88
2019-11-17 07:00:00 3.9 19 Oeste 30 Oeste 0 -- -- 88
2019-11-17 06:00:00 3.4 15 Sudoeste 30 Sudoeste 0 -- -- 90
2019-11-17 05:00:00 2.7 19 Sudoeste 33 Sudoeste 0 -- -- 94
2019-11-17 04:00:00 2.9 16 Oeste 27 Oeste 0 -- -- 87
2019-11-17 03:00:00 2.8 15 Sudoeste 28 Sudoeste 0 -- -- 86
2019-11-17 02:00:00 1.9 17 Sudoeste 28 Sudoeste 0 -- -- 88
2019-11-17 01:00:00 1.9 18 Oeste 29 Oeste 0 -- -- 86
2019-11-17 00:00:00 2.3 16 Oeste 27 Oeste 0 -- -- 85
2019-11-16 23:00:00 1.9 14 Sudoeste 22 Sudoeste 0 -- -- 86
2019-11-16 22:00:00 1.3 13 Oeste 20 Sudoeste 0 -- -- 88
2019-11-16 21:00:00 1.3 12 Sudoeste 17 Sudoeste 0 -- -- 87
2019-11-16 20:00:00 2 11 Oeste 25 Oeste 0 -- -- 84
2019-11-16 19:00:00 2.7 13 Oeste 24 Oeste 0 -- -- 86
2019-11-16 18:00:00 3.7 19 Oeste 31 Oeste 0 -- -- 81
2019-11-16 17:00:00 5.1 20 Oeste 33 Oeste 0 -- -- 76
2019-11-16 16:00:00 6.2 19 Oeste 28 Oeste 0 -- -- 69
2019-11-16 15:00:00 6 22 Oeste 31 Oeste 0 -- -- 72
2019-11-16 14:00:00 5.5 23 Oeste 33 Oeste 0 -- -- 70
2019-11-16 13:00:00 5 16 Oeste 26 Oeste 0 -- -- 73
2019-11-16 12:00:00 3.7 15 Sudoeste 26 Oeste 0 -- -- 81
2019-11-16 11:00:00 2.4 17 Sudoeste 26 Sudoeste 0 -- -- 87
2019-11-16 10:00:00 0.9 16 Oeste 23 Oeste 0 -- -- 92
2019-11-16 09:00:00 -0.2 12 Sudoeste 19 Sudoeste 0 -- -- 96
2019-11-16 08:00:00 -1 6 Sudoeste 16 Sudoeste 0 -- -- 97
2019-11-16 07:00:00 -0.7 10 Sudoeste 20 Oeste 0 -- -- 98
2019-11-16 06:00:00 -0.4 10 Sudoeste 22 Oeste 0 -- -- 98
2019-11-16 05:00:00 -0.4 14 Oeste 22 Oeste 0 -- -- 98
2019-11-16 04:00:00 0 11 Oeste 19 Oeste 0 -- -- 97
2019-11-16 03:00:00 -0.2 9 Oeste 18 Oeste 0 -- -- 97
2019-11-16 02:00:00 0 12 Oeste 22 Oeste 0 -- -- 97
2019-11-16 01:00:00 0.4 12 Oeste 23 Oeste 0 -- -- 96
2019-11-16 00:00:00 0.9 15 Oeste 21 Oeste 0 -- -- 95
2019-11-15 23:00:00 1.4 15 Oeste 25 Oeste 0 -- -- 93
2019-11-15 22:00:00 1.8 18 Oeste 35 Oeste 0 -- -- 91
2019-11-15 21:00:00 2.2 22 Oeste 35 Oeste 0 -- -- 87
2019-11-15 20:00:00 2.2 21 Oeste 32 Oeste 0 -- -- 84
2019-11-15 19:00:00 2.5 19 Oeste 28 Oeste 0 -- -- 84
2019-11-15 18:00:00 3.9 23 Noroeste 33 Oeste 0 -- -- 74
2019-11-15 17:00:00 5 23 Oeste 31 Noroeste 0 -- -- 71
2019-11-15 16:00:00 5.3 25 Oeste 36 Oeste 0 -- -- 67
2019-11-15 15:00:00 5.4 26 Oeste 38 Oeste 0 -- -- 69
2019-11-15 14:00:00 5.5 24 Noroeste 34 Noroeste 0 -- -- 71
2019-11-15 13:00:00 4.2 24 Oeste 36 Oeste 0 -- -- 78
2019-11-15 12:00:00 3.9 25 Oeste 36 Oeste 0 -- -- 84
2019-11-15 11:00:00 2.5 22 Oeste 39 Oeste 0 -- -- 90
2019-11-15 10:00:00 1.2 21 Oeste 31 Oeste 0 -- -- 97
2019-11-15 09:00:00 0.4 21 Oeste 35 Oeste 0 -- -- 97
2019-11-15 08:00:00 0.2 20 Oeste 33 Oeste 0 -- -- 97
2019-11-15 07:00:00 0.3 22 Oeste 33 Oeste 0 -- -- 96
2019-11-15 06:00:00 0.6 23 Oeste 36 Oeste 0 -- -- 94
2019-11-15 05:00:00 1.2 27 Oeste 39 Oeste 0 -- -- 94
2019-11-15 04:00:00 1.5 27 Oeste 36 Oeste 0 -- -- 94
2019-11-15 03:00:00 1.2 27 Oeste 40 Oeste 0.4 -- -- 97
2019-11-15 02:00:00 1.9 32 Oeste 44 Oeste 0 -- -- 93
2019-11-15 01:00:00 1.8 31 Oeste 44 Oeste 0.4 -- -- 95
2019-11-15 00:00:00 2 34 Oeste 47 Noroeste 0.2 -- -- 93